ロニオス-タッカー彗星

P/1998 QP54 ( LONEOS-Tucker )

English version
Home page
Updated on September 15, 1999

---------------------------------------------------------------------

・ プロフィール

発見日 1998年8月27日, 9月13日
発見光度 17.1等, 16.7等
発見者 Lowell Observatory Near-Earth Object Search, Roy A. Tucker (Tucson, AZ)

・ 写真集

・ 軌道要素

   The following improved orbital elements by Kenji Muraoka, are
  from 212 observations 1998 Aug. 27 to 1999 Feb. 14, perturbations
  by 9 Planets, Moon and 5 minor planets were taken into account. 
   The mean residual is +/- 0.81 arc seconds.

      Epoch  =  1998 Sept. 24.0  TT      JDT = 2451080.5
          T  =  1998 Oct.   6.40146      +/- 0.00160 (m.e.) TT
       Peri. =   30.10075                +/- 0.00154
       Node  =  341.92829                +/- 0.00168   (2000.0)
       Incl. =   17.74341                +/- 0.00015
          q  =    1.8818498              +/- 0.0000321 AU
          e  =    0.5519217              +/- 0.0000048
          a  =    4.1998240              +/- 0.0000557 AU
          n  =    0.11451370             +/- 0.00000228
          P  =    8.607                  +/- 0.0001711  years
                                        (+/- 0.06 day)

・ 星図

・ 光度変化

        m1 = 5.0 + 5 logΔ + 40.0 log r

---------------------------------------------------------------------

軌道要素は村岡健治氏の計算によるものです。
星図は StellaNavigator Ver.2.0 for Windows (アストロアーツ 編著 / アスキー出版局刊) で作成したものです。
光度グラフはComet for Windowsで作成したものです。

---------------------------------------------------------------------

Copyright(C) Seiichi Yoshida (comet@aerith.net). All rights reserved.